Location: Franzen
(48.6167°N, 15.3833°E)
Time: 20:41:40
(UTC+00:00)

Cosmos 2227 Rocket - Visible Passes

Search period start: 23 July 2021 00:00
Search period end: 02 August 2021 00:00
Orbit: 839 x 845 km, 71.0° (Epoch: 23 July)

Date Brightness Start Highest point End Pass type
(mag) Time Alt. Az. Time Alt. Az. Time Alt. Az.
23 Jul 2.2 01:11:26 25° SSW 01:14:53 89° WNW 01:20:36 10° NNE visible
23 Jul 4.2 23:15:03 13° ESE 23:16:44 15° E 23:19:49 10° ENE visible
24 Jul 2.2 00:56:52 29° SSW 00:59:56 88° ESE 01:05:38 10° NNE visible
24 Jul 3.9 02:40:27 10° W 02:44:45 22° NW 02:49:06 10° N visible
24 Jul 4.2 23:00:28 13° ESE 23:01:49 14° E 23:04:42 10° ENE visible
25 Jul 2.2 00:42:17 33° SSW 00:44:58 84° ESE 00:50:40 10° NNE visible
25 Jul 3.9 02:25:22 10° W 02:29:45 23° NW 02:34:10 10° N visible
25 Jul 4.2 22:45:51 13° ESE 22:46:54 14° E 22:49:33 10° ENE visible
26 Jul 2.2 00:27:39 37° SSW 00:30:00 81° ESE 00:35:42 10° NNE visible
26 Jul 3.8 02:10:17 10° W 02:14:45 23° NW 02:19:14 10° N visible
26 Jul 4.2 22:31:12 12° ESE 22:31:58 13° E 22:34:22 10° ENE visible
27 Jul 2.2 00:13:00 41° SSW 00:15:03 77° ESE 00:20:44 10° NNE visible
27 Jul 3.8 01:55:13 10° W 01:59:44 24° NW 02:04:18 10° N visible
27 Jul 4.3 22:16:31 12° E 22:17:03 12° E 22:19:09 10° ENE visible
27 Jul 2.2 23:58:20 45° S 00:00:05 74° ESE 00:05:45 10° NNE visible
28 Jul 3.8 01:40:09 10° W 01:44:45 25° NW 01:49:23 10° N visible
28 Jul 4.3 22:01:49 11° E 22:02:09 11° E 22:03:52 10° ENE visible
28 Jul 2.2 23:43:37 48° S 23:45:08 71° ESE 23:50:47 10° NNE visible
29 Jul 3.8 01:25:26 11° W 01:29:45 26° NW 01:34:26 10° NNE visible
29 Jul 4.3 21:47:05 11° E 21:47:14 11° E 21:48:29 10° E visible
29 Jul 2.2 23:28:53 51° S 23:30:10 68° ESE 23:35:48 10° NNE visible
30 Jul 3.7 01:10:41 13° W 01:14:44 27° NW 01:19:30 10° NNE visible
30 Jul 4.4 21:32:19 10° E 21:32:19 10° E 21:32:39 10° E visible
30 Jul 2.2 23:14:07 53° SSE 23:15:13 65° ESE 23:20:50 10° NNE visible
31 Jul 3.7 00:55:55 14° W 00:59:44 27° NW 01:04:33 10° NNE visible
31 Jul 2.2 22:59:20 54° SSE 23:00:16 62° ESE 23:05:51 10° NNE visible
01 Aug 3.7 00:41:07 15° W 00:44:44 28° NW 00:49:37 10° NNE visible
01 Aug 2.2 22:44:30 53° SSE 22:45:18 59° ESE 22:50:52 10° NE visible
